[[{"header":{"parameterUnit":"m.s-1","parameterCategory":1,"la1":30.2991,"la2":30.254,"lo1":-89.0895,"lo2":-89.0444,"dy":0.0017,"dx":0.0017,"nx":28,"ny":28,"refTime":"2025-07-16T09:00:00:Z","depth":0,"parameterNumber":2,"parameterNumberName":"U-component_of_WINDS"},"data":[0,0,0,0,0,0,0,0,0,0,0,0,0,0,0,0,0,0,0,0,0,0,0,0,0,0,0,0,0,0,0,0,0,0,0,0,0,0,0,0,0,0,0,0,0,0,0,0,0,0,0,0,0,0,0,0,0,0,-5.6437,-5.6437,0,-5.6426,-5.6426,-5.6426,-5.639,-5.6389,-5.6389,-5.6388,-5.6377,-5.6378,-5.6378,0,0,0,0,0,0,0,0,0,0,0,0,0,-5.6429,-5.643,-5.6437,-5.6437,-5.6437,-5.6426,-5.6426,-5.6426,-5.639,-5.6389,-5.6388,-5.6388,-5.6377,-5.6378,-5.6378,0,0,0,0,0,0,0,0,0,0,0,0,0,-5.6427,-5.643,-5.6437,-5.6418,-5.6416,-5.6426,-5.6426,-5.6426,-5.6391,-5.6389,-5.6388,-5.6387,-5.6377,-5.6378,-5.6378,-5.6406,0,0,-5.638,-5.6381,0,0,0,0,0,0,0,0,-5.6427,-5.6427,-5.6421,-5.6419,-5.6417,-5.6408,-5.6419,-5.6419,-5.6391,-5.64,-5.6388,-5.6387,-5.6389,-5.6388,-5.6389,-5.6406,-5.6405,-5.638,-5.6381,-5.6381,-5.6381,0,0,0,0,0,0,0,-5.6427,-5.6428,-5.6433,-5.6421,-5.6419,-5.641,-5.6409,-5.6419,-5.6401,-5.6399,-5.6397,-5.6396,-5.6387,-5.6388,-5.6388,-5.6405,-5.638,-5.6381,-5.6381,-5.6382,-5.6444,-5.6445,0,0,0,0,0,0,-5.643,-5.6428,-5.6433,-5.6432,-5.6419,-5.6411,-5.641,-5.6412,-5.6401,-5.6398,-5.6397,-5.6394,-5.6388,-5.6388,-5.6388,-5.6418,-5.6381,-5.6382,-5.6382,-5.6442,-5.6444,-5.6445,0,0,0,0,0,0,-5.643,-5.6431,-5.6434,-5.6429,-5.6429,-5.6413,-5.6416,-5.6413,-5.6413,-5.6399,-5.6396,-5.6401,-5.6387,-5.6387,-5.6402,-5.6417,-5.6382,-5.6383,-5.6441,-5.6443,-5.6445,-5.648,0,0,0,0,0,0,-5.643,-5.6431,-5.6441,-5.643,-5.643,-5.6447,-5.6417,-5.6413,-5.6415,-5.6411,-5.6402,-5.6399,-5.6386,-5.6401,-5.6402,-5.6418,-5.6383,-5.6439,-5.6442,-5.6444,-5.6478,-5.6483,-5.6488,0,0,0,0,0,-5.643,-5.6452,-5.6442,-5.6443,-5.6442,-5.6448,-5.6448,-5.6432,-5.6416,-5.6426,-5.6417,-5.64,-5.6416,-5.6403,-5.6404,-5.642,-5.6438,-5.6441,-5.6444,-5.6475,-5.6482,-5.6488,0,0,0,0,0,0,-5.6465,-5.645,-5.6439,-5.6458,-5.6455,-5.6442,-5.6454,-5.644,-5.6441,-5.6437,-5.6418,-5.6416,-5.6433,-5.6429,-5.6414,-5.6446,-5.6424,-5.6428,-5.6448,-5.6454,-5.6459,-5.6459,-5.6384,0,0,0,0,0,-5.6476,-5.6482,-5.6468,-5.6487,-5.6486,-5.6471,-5.6473,-5.6461,-5.6456,-5.6455,-5.6447,-5.6444,-5.6448,-5.6452,-5.6455,-5.6478,-5.6475,-5.649,-5.6495,-5.6499,-5.6501,-5.6512,-5.6518,-5.6454,-5.6454,-5.6454,0,0,-5.6496,-5.6489,-5.6494,-5.6494,-5.649,-5.6496,-5.6469,-5.6478,-5.6483,-5.6456,-5.6469,-5.6464,-5.6459,-5.6478,-5.6486,-5.6474,-5.6519,-5.6503,-5.6506,-5.6506,-5.6515,-5.6521,-5.6527,-5.6456,-5.6456,-5.6456,0,0,-5.6537,-5.6533,-5.6546,-5.6543,-5.6538,-5.6528,-5.6531,-5.6521,-5.6516,-5.6529,-5.6509,-5.6515,-5.6524,-5.6521,-5.652,-5.6562,-5.6545,-5.6564,-5.6589,-5.66,-5.6605,-5.6609,-5.6622,-5.6627,-5.6567,-5.6567,-5.6567,0,-5.6563,-5.6572,-5.6556,-5.6565,-5.6565,-5.6542,-5.6556,-5.6554,-5.655,-5.6551,-5.6539,-5.6548,-5.6544,-5.6561,-5.6571,-5.6572,-5.6575,-5.6563,-5.6606,-5.661,-5.6614,-5.6625,-5.6631,-5.6569,-5.6568,-5.6568,-5.6568,0,-5.6604,-5.6611,-5.6623,-5.6619,-5.6621,-5.6633,-5.6618,-5.6623,-5.6611,-5.6603,-5.6616,-5.661,-5.6611,-5.6615,-5.6604,-5.6631,-5.6624,-5.6609,-5.6586,-5.6622,-5.6633,-5.6637,-5.6572,-5.6571,-5.657,-5.657,0,0,-5.6664,-5.6652,-5.6656,-5.6654,-5.6647,-5.6652,-5.6663,-5.6664,-5.6667,-5.6666,-5.6674,-5.6683,-5.6669,-5.6669,-5.6658,-5.6668,-5.6698,-5.6652,-5.6651,-5.6658,-5.6725,-5.6734,-5.674,-5.6689,-5.669,-5.6691,-5.6725,0,-5.67,-5.6717,-5.6704,-5.6723,-5.6729,-5.6708,-5.6718,-5.6715,-5.6708,-5.6712,-5.6705,-5.671,-5.6693,-5.6692,-5.6701,-5.6693,-5.6711,-5.6691,-5.6695,-5.6695,-5.6694,-5.6746,-5.6755,-5.6788,-5.6729,-5.673,-5.6731,0,-5.6744,-5.6744,-5.6765,-5.6756,-5.6758,-5.6767,-5.6766,-5.6771,-5.6768,-5.6762,-5.6762,-5.6748,-5.6759,-5.6739,-5.6753,-5.6739,-5.6741,-5.6738,-5.6738,-5.6736,-5.6713,-5.6742,-5.6798,-5.6802,-5.6738,-5.6737,-5.6737,0,-5.6783,-5.6789,-5.6801,-5.6801,-5.6791,-5.6798,-5.6794,-5.679,-5.6791,-5.6792,-5.6792,-5.6795,-5.6795,-5.6797,-5.6784,-5.6772,-5.6799,-5.6779,-5.6794,-5.6794,-5.6798,-5.6797,-5.6852,-5.6804,-5.6804,-5.6804,-5.6804,0,-5.6824,-5.6836,-5.6818,-5.6826,-5.6839,-5.6824,-5.6838,-5.6833,-5.6829,-5.6835,-5.6819,-5.6825,-5.6809,-5.6814,-5.6805,-5.6817,-5.6818,-5.6813,-5.6809,-5.6813,-5.6813,-5.6811,-5.6807,-5.6805,-5.6805,-5.6805,-5.6804,0,-5.6868,-5.6857,-5.6868,-5.6859,-5.6857,-5.6868,-5.686,-5.6866,-5.6859,-5.6867,-5.6868,-5.6856,-5.6861,-5.6849,-5.6853,-5.6846,-5.6863,-5.6857,-5.6863,-5.6861,-5.6875,-5.6873,-5.6929,-5.6935,-5.6885,-5.6886,-5.6886,0,-5.6893,-5.6902,-5.6894,-5.6896,-5.6894,-5.6899,-5.69,-5.6886,-5.6888,-5.6885,-5.6892,-5.6896,-5.6897,-5.6906,-5.6897,-5.69,-5.6893,-5.6912,-5.6893,-5.6895,-5.689,-5.6889,-5.6889,-5.6915,-5.6916,-5.6916,-5.6917,0,-5.6938,-5.6932,-5.6934,-5.6935,-5.6937,-5.6937,-5.6936,-5.694,-5.6925,-5.6928,-5.6933,-5.6934,-5.6937,-5.694,-5.6941,-5.6938,-5.6925,-5.6924,-5.6927,-5.6928,-5.693,-5.6927,-5.6871,-5.6922,-5.6921,-5.6921,-5.692,-5.692,-5.6971,-5.6978,-5.6973,-5.6976,-5.6974,-5.6974,-5.6979,-5.6973,-5.6976,-5.6977,-5.6969,-5.6975,-5.6972,-5.6971,-5.697,-5.6974,-5.6965,-5.697,-5.6971,-5.6972,-5.6973,-5.6932,-5.6975,-5.6974,-5.6974,-5.6974,-5.6974,0,-5.7013,-5.701,-5.7013,-5.7012,-5.7014,-5.7003,-5.7001,-5.7004,-5.7009,-5.7007,-5.7009,-5.7014,-5.7017,-5.701,-5.7012,-5.7017,-5.7011,-5.7018,-5.7016,-5.7015,-5.6982,-5.6978,-5.7023,-5.7023,-5.7023,-5.7023,-5.7023,-5.7023,-5.7035,-5.7046,-5.704,-5.7049,-5.7045,-5.705,-5.705,-5.7049,-5.7048,-5.7054,-5.7056,-5.7052,-5.7047,-5.7049,-5.7052,-5.7049,-5.705,-5.7058,-5.7054,-5.7023,-5.7018,-5.7013,-5.7009,-5.7059,-5.7059,-5.7086,-5.7086,-5.7087]},{"header":{"parameterUnit":"m.s-1","parameterCategory":1,"la1":30.2991,"la2":30.254,"lo1":-89.0895,"lo2":-89.0444,"dy":0.0017,"dx":0.0017,"nx":28,"ny":28,"refTime":"2025-07-16T09:00:00:Z","depth":0,"parameterNumber":3,"parameterNumberName":"V-component_of_WINDS"},"data":[0,0,0,0,0,0,0,0,0,0,0,0,0,0,0,0,0,0,0,0,0,0,0,0,0,0,0,0,0,0,0,0,0,0,0,0,0,0,0,0,0,0,0,0,0,0,0,0,0,0,0,0,0,0,0,0,0,0,4.8658,4.8658,0,4.8605,4.8605,4.8604,4.8509,4.8507,4.8505,4.8504,4.845,4.845,4.8451,0,0,0,0,0,0,0,0,0,0,0,0,0,4.8679,4.8679,4.8658,4.8657,4.8657,4.8605,4.8605,4.8604,4.8509,4.8507,4.8505,4.8503,4.845,4.845,4.8451,0,0,0,0,0,0,0,0,0,0,0,0,0,4.8652,4.8679,4.8658,4.8603,4.8598,4.8605,4.8605,4.8604,4.851,4.8507,4.8504,4.8502,4.845,4.845,4.8451,4.8507,0,0,4.8452,4.8452,0,0,0,0,0,0,0,0,4.8654,4.8652,4.8612,4.8607,4.8601,4.8561,4.8592,4.8571,4.8511,4.8543,4.8504,4.8501,4.8489,4.8486,4.8482,4.8505,4.8503,4.8452,4.8452,4.8452,4.8452,0,0,0,0,0,0,0,4.8656,4.8653,4.8637,4.8612,4.8605,4.8582,4.8575,4.8588,4.8532,4.854,4.8533,4.8528,4.8486,4.8482,4.848,4.8502,4.8452,4.8452,4.8452,4.8453,4.8569,4.8572,0,0,0,0,0,0,4.8666,4.8655,4.8639,4.8636,4.8621,4.8584,4.8576,4.8577,4.8532,4.8522,4.8531,4.8524,4.8483,4.848,4.8478,4.8542,4.8452,4.8453,4.8453,4.8566,4.857,4.8573,0,0,0,0,0,0,4.8666,4.8665,4.8641,4.8644,4.8639,4.8586,4.8588,4.8577,4.8573,4.8524,4.8514,4.8537,4.8481,4.8478,4.8501,4.8539,4.8453,4.8453,4.8563,4.8567,4.8571,4.867,0,0,0,0,0,0,4.8667,4.8666,4.8686,4.8645,4.8639,4.8665,4.859,4.8578,4.8574,4.8565,4.8528,4.8519,4.8478,4.8501,4.8501,4.8538,4.8453,4.8559,4.8565,4.857,4.8663,4.8677,4.8689,0,0,0,0,0,4.8668,4.8716,4.8688,4.8686,4.8664,4.8667,4.8664,4.8616,4.8578,4.8598,4.8567,4.852,4.8535,4.8504,4.8504,4.8541,4.8557,4.8563,4.857,4.8657,4.8674,4.8689,0,0,0,0,0,0,4.8764,4.871,4.8678,4.8713,4.8696,4.8651,4.8675,4.8635,4.8628,4.8619,4.856,4.8553,4.8584,4.8565,4.8532,4.8594,4.8538,4.8545,4.8605,4.8621,4.8634,4.8638,4.8454,0,0,0,0,0,4.8789,4.8796,4.8748,4.8784,4.8777,4.8728,4.8728,4.8692,4.8671,4.8663,4.8634,4.8616,4.8616,4.8617,4.8615,4.866,4.8651,4.8685,4.8698,4.8709,4.8716,4.8739,4.8754,4.8594,4.8594,4.8594,0,0,4.8841,4.8812,4.882,4.8803,4.8785,4.8794,4.8722,4.8735,4.8741,4.8665,4.8685,4.8664,4.8639,4.8674,4.8688,4.8659,4.8758,4.8717,4.8727,4.8727,4.8747,4.8762,4.8776,4.8598,4.8598,4.8597,0,0,4.894,4.8919,4.8947,4.8931,4.8904,4.8872,4.8879,4.884,4.8823,4.8842,4.8786,4.8793,4.8795,4.878,4.8773,4.8868,4.8825,4.8869,4.8937,4.896,4.8972,4.8983,4.9018,4.9031,4.8876,4.8876,4.8876,0,4.9008,4.9019,4.8967,4.8983,4.8977,4.8909,4.8938,4.8924,4.8899,4.8897,4.8865,4.8866,4.8845,4.8876,4.8899,4.8896,4.8902,4.8873,4.8975,4.8985,4.8995,4.9027,4.904,4.8881,4.8881,4.888,4.888,0,4.9104,4.9113,4.9138,4.9116,4.9113,4.9135,4.9087,4.9091,4.9056,4.9027,4.9048,4.9021,4.9012,4.9017,4.8983,4.9043,4.9026,4.8986,4.8929,4.9016,4.9045,4.9057,4.8889,4.8887,4.8886,4.8884,0,0,4.9261,4.921,4.922,4.9209,4.9176,4.9181,4.9201,4.9193,4.9197,4.9182,4.9198,4.9201,4.9164,4.9156,4.912,4.914,4.9218,4.9097,4.9095,4.9121,4.9283,4.9314,4.9329,4.919,4.9192,4.9193,4.9286,0,4.9353,4.9383,4.9337,4.9378,4.9386,4.9322,4.9339,4.9321,4.9295,4.9298,4.9269,4.9273,4.9223,4.9218,4.9235,4.9205,4.925,4.9198,4.9204,4.9204,4.9212,4.9344,4.9377,4.9465,4.9297,4.9298,4.93,0,4.9464,4.9455,4.9497,4.9461,4.9463,4.9479,4.9468,4.9472,4.945,4.9429,4.9422,4.9379,4.9396,4.9342,4.9365,4.9331,4.9331,4.9317,4.9319,4.9317,4.9257,4.9347,4.9492,4.9506,4.9317,4.9316,4.9315,0,4.9575,4.9573,4.9598,4.959,4.955,4.9563,4.9547,4.9522,4.952,4.9511,4.9509,4.9502,4.9499,4.9494,4.9451,4.9415,4.948,4.9422,4.9464,4.9466,4.948,4.948,4.9628,4.9481,4.948,4.948,4.948,0,4.9683,4.9711,4.9647,4.9662,4.9692,4.964,4.9671,4.9648,4.9628,4.9638,4.9583,4.9593,4.9536,4.9541,4.9507,4.9532,4.9531,4.9515,4.9506,4.952,4.9522,4.9519,4.9512,4.9484,4.9483,4.9482,4.9482,0,4.9811,4.977,4.9793,4.9753,4.9743,4.9767,4.9733,4.9746,4.9716,4.973,4.973,4.9684,4.9687,4.9644,4.9639,4.9616,4.9656,4.9636,4.9664,4.9658,4.9702,4.9699,4.9853,4.9871,4.9713,4.9714,4.9716,0,4.9883,4.9903,4.9865,4.9868,4.9855,4.986,4.9858,4.9807,4.9808,4.9785,4.9801,4.9799,4.9795,4.9803,4.977,4.9766,4.9745,4.9799,4.9744,4.9758,4.9746,4.9746,4.9748,4.9811,4.9813,4.9815,4.9816,0,5.0015,4.9993,4.9992,4.9984,4.9983,4.9975,4.9963,4.9968,4.9913,4.9916,4.9919,4.9916,4.9911,4.991,4.99,4.9883,4.9841,4.9834,4.9843,4.9858,4.9874,4.9866,4.9696,4.983,4.9829,4.9828,4.9827,4.9827,5.0117,5.0132,5.0108,5.0109,5.0095,5.0085,5.0095,5.0067,5.0068,5.006,5.003,5.0038,5.0017,4.9998,4.9986,4.9992,4.9965,4.9979,4.9982,4.9987,4.9995,4.9873,4.999,4.9989,4.9989,4.9988,4.9988,0,5.0246,5.0228,5.0229,5.0214,5.0215,5.0175,5.016,5.0163,5.0171,5.0154,5.0152,5.0155,5.0155,5.0122,5.0117,5.0128,5.0109,5.0129,5.0128,5.0125,5.0019,5.0011,5.0145,5.0145,5.0144,5.0144,5.0144,5.0144,5.0313,5.0337,5.0313,5.033,5.0311,5.0318,5.0313,5.0304,5.0291,5.0297,5.0296,5.0274,5.0251,5.0245,5.0243,5.0233,5.0234,5.0261,5.0245,5.0147,5.0132,5.0117,5.011,5.0262,5.0262,5.035,5.0351,5.0352]}]]